Windsor Heights, WV

9:10 PM EST on February 06, 2016 (GMT -0500)
Wheeling-Ohio County

Weather History for KHLG - June, 2013

Change the Weather History Date:

Tuesday, June 25, 2013

  Actual Average Record
Temperature  
Mean Temperature 76 °F 70 °F  
Max Temperature 86 °F 80 °F 95 °F (1952)
Min Temperature 65 °F 61 °F 51 °F (2001)
Degree Days  
Heating Degree Days 0 0  
Month to date heating degree days 21 38  
Since 1 June heating degree days 21 38  
Since 1 July heating degree days 5465 5587  
Cooling Degree Days 11    
Month to date cooling degree days 105  
Year to date cooling degree days 211  
Since 1 June cooling degree days 105  
Growing Degree Days 25 (Base 50)    
Moisture  
Dew Point 65 °F    
Average Humidity 76    
Maximum Humidity 100    
Minimum Humidity 51    
Precipitation  
Precipitation 0.12 in 0.15 in - ()
Month to date precipitation 1.52 4.17  
Sea Level Pressure  
Sea Level Pressure 30.00 in    
Wind  
Wind Speed 8 mph (SW)    
Max Wind Speed 22 mph    
Max Gust Speed 30 mph    
Visibility 8 miles    
Events Rain , Thunderstorm    
T = Trace of Precipitation, MM = Missing Value Source: NWS Daily Summary

Daily Weather History Graph

Daily Weather History Graph

Search for Another Location

Airport or City:

Trip Planner

Search our weather history database for the weather conditions in past years. The results will help you decide how hot, cold, wet, or windy it might be!

Date:

Astronomy

Jun. 25, 2013 Rise Set
Actual Time 5:54 AM EDT 8:56 PM EDT
Civil Twilight 5:21 AM EDT 9:28 PM EDT
Nautical Twilight 4:39 AM EDT 10:10 PM EDT
Astronomical Twilight 3:50 AM EDT 10:59 PM EDT
Moon 10:40 PM EDT (6/25) 8:32 AM EDT (6/25)
Length of Visible Light 16h 07m
Length of Day
15h 01m
Waning Gibbous, 93% of the Moon is Illuminated
Jun 25
Waning Gibbous
Jun 30
Last Quarter
Jul 8
New
Jul 15
First Quarter
Jul 22
Full

Hourly Weather History & Observations

Time (EDT) Temp. Heat Index Dew Point Humidity Pressure Visibility Wind Dir Wind Speed Gust Speed Precip Events Conditions
12:53 AM 73.0 °F - 66.0 °F 79% 30.07 in 10.0 mi SW 6.9 mph - N/A   Clear
1:53 AM 72.0 °F - 66.0 °F 81% 30.05 in 9.0 mi SSW 6.9 mph - N/A   Partly Cloudy
2:53 AM 72.0 °F - 66.0 °F 81% 30.04 in 9.0 mi SW 5.8 mph - N/A   Clear
3:53 AM 71.1 °F - 64.9 °F 81% 29.99 in 10.0 mi SSE 5.8 mph - N/A   Clear
4:53 AM 70.0 °F - 64.9 °F 84% 30.01 in 10.0 mi SSW 3.5 mph - N/A   Clear
5:53 AM 69.1 °F - 64.9 °F 87% 30.02 in 9.0 mi SW 5.8 mph - N/A   Clear
6:53 AM 69.1 °F - 64.0 °F 84% 30.03 in 9.0 mi SW 8.1 mph - N/A   Clear
7:53 AM 71.1 °F - 64.9 °F 81% 30.05 in 10.0 mi SW 8.1 mph - N/A   Clear
8:53 AM 73.9 °F - 64.9 °F 73% 30.05 in 10.0 mi SW 9.2 mph - N/A   Scattered Clouds
9:53 AM 75.9 °F - 66.0 °F 71% 30.06 in 10.0 mi West 8.1 mph - N/A   Mostly Cloudy
10:53 AM 78.1 °F - 64.9 °F 64% 30.06 in 10.0 mi West 9.2 mph 17.3 mph N/A   Clear
11:53 AM 82.0 °F 84.9 °F 68.0 °F 62% 30.05 in 10.0 mi WSW 10.4 mph - N/A   Partly Cloudy
12:53 PM 82.0 °F 84.5 °F 66.9 °F 60% 30.03 in 10.0 mi WSW 10.4 mph - N/A   Clear
1:53 PM 84.0 °F 86.5 °F 66.9 °F 56% 30.00 in 10.0 mi WSW 10.4 mph - N/A   Clear
2:53 PM 84.9 °F 88.2 °F 68.0 °F 57% 29.99 in 10.0 mi WSW 9.2 mph - N/A   Partly Cloudy
3:53 PM 84.9 °F 88.2 °F 68.0 °F 57% 29.97 in 10.0 mi SSW 12.7 mph 19.6 mph N/A   Scattered Clouds
4:53 PM 86.0 °F 88.8 °F 66.9 °F 53% 29.94 in 10.0 mi SW 15.0 mph 19.6 mph N/A   Clear
5:53 PM 84.0 °F 86.5 °F 66.9 °F 56% 29.93 in 10.0 mi SW 17.3 mph 23.0 mph N/A   Clear
6:11 PM 82.4 °F 84.6 °F 66.2 °F 58% 29.96 in 10.0 mi SW 13.8 mph 18.4 mph N/A Thunderstorm Partly Cloudy
6:22 PM 73.4 °F - 62.6 °F 69% 30.00 in 1.8 mi WNW 13.8 mph 39.1 mph 0.08 in Rain , Thunderstorm Thunderstorms and Rain
6:26 PM 69.8 °F - 62.6 °F 78% 30.01 in 0.8 mi West 20.7 mph 39.1 mph 0.24 in Rain , Thunderstorm Heavy Thunderstorms and Rain
6:33 PM 68.0 °F - 62.6 °F 83% 29.99 in 0.5 mi Variable 5.8 mph 35.7 mph 0.42 in Rain , Thunderstorm Heavy Thunderstorms and Rain
6:39 PM 69.8 °F - 62.6 °F 78% 29.99 in 3.0 mi West 9.2 mph - 0.42 in Rain , Thunderstorm Light Thunderstorms and Rain
6:53 PM 68.0 °F - 63.0 °F 84% 29.96 in 8.0 mi SW 4.6 mph - 0.43 in Rain , Thunderstorm Light Thunderstorms and Rain
10:29 PM - - - N/A% - - North - - N/A   Unknown
10:53 PM 64.9 °F - 64.0 °F 97% 29.93 in 10.0 mi SE 4.6 mph - N/A   Unknown
11:53 PM 66.9 °F - 64.0 °F 90% 29.94 in 10.0 mi Calm Calm - 0.01 in   Clear